Location: St. Louis
(38.6270°N, 90.1994°W)
Time: 21:19:21
(UTC-06:00)

Vanguard 1 - Pass Details

Date: 09 December 2021
Orbit: 652 x 3830 km, 34.2° (Epoch: 21 January)

Event Time Altitude Azimuth Distance (km) Brightness Sun altitude
Exits shadow 05:32:35 19° 270° (W) 5,809 13.4 -17.9°
Maximum altitude 05:44:38 34° 226° (SW) 4,106 12.9 -15.6°
Drops below altitude 10° 05:56:23 10° 167° (SSE) 4,558 13.9 -13.5°
Sets 05:59:46 0° 157° (SSE) 5,158 14.4 -12.8°
